User: anonymous   Login
Location: Meeteetse
(44.0232°N, 108.9875°W)
Time: 17:48:00
(UTC-07:00)
Language:

IGS 1A - Orbit

View from above orbital plane
View from above orbital plane
View from above satellite
View from above satellite

Ground track
Ground track

The orbit data is extracted from the following two-line orbital elements,

1 27698U 03009A   14198.96853896 0.04700000  00000-0  61120-3 0    08
2 27698  97.2708 288.4639 0004000 228.1189 131.8809 16.35809477    02
Epoch (UTC): 17 July 2014 23:14:41
Eccentricity: 0.0004000
inclination: 97.2708°
perigee height: 174 km
apogee height: 179 km
right ascension of ascending node: 288.4639°
argument of perigee: 228.1189°
revolutions per day: 16.35809477
mean anomaly at epoch: 131.8809°
orbit number at epoch: 0

The dashed part of the orbit path shows where the satellite is in the earth's shadow,  

DLR